Time,TemperatureF,DewpointF,PressureIn,WindDirection,WindDirectionDegrees,WindSpeedMPH,WindSpeedGustMPH,Humidity,HourlyPrecipIn,Conditions,Clouds,dailyrainin,SoftwareType,DateUTC
2013-07-19 00:08:00,71.7,71.0,29.96,SSE,162,0.0,-999.0,96,-99.99,,,0.00,weatherlink.com 1.10,2013-07-19 04:08:00,
2013-07-19 00:23:00,71.4,70.0,29.95,SSE,162,0.0,-999.0,96,-99.99,,,0.00,weatherlink.com 1.10,2013-07-19 04:23:00,
2013-07-19 00:38:00,71.2,70.0,29.95,SSE,162,0.0,-999.0,96,-99.99,,,0.00,weatherlink.com 1.10,2013-07-19 04:38:00,
2013-07-19 00:53:00,71.1,70.0,29.95,SSE,162,0.0,-999.0,96,-99.99,,,0.00,weatherlink.com 1.10,2013-07-19 04:53:00,
2013-07-19 01:08:00,71.1,70.0,29.95,SSE,162,0.0,-999.0,97,-99.99,,,0.00,weatherlink.com 1.10,2013-07-19 05:08:00,
2013-07-19 01:23:00,71.0,70.0,29.95,SSE,162,0.0,-999.0,97,-99.99,,,0.00,weatherlink.com 1.10,2013-07-19 05:23:00,
2013-07-19 01:38:00,71.0,70.0,29.94,SSE,162,0.0,-999.0,97,-99.99,,,0.00,weatherlink.com 1.10,2013-07-19 05:38:00,
2013-07-19 01:53:00,70.8,70.0,29.94,SSE,162,0.0,-999.0,97,-99.99,,,0.00,weatherlink.com 1.10,2013-07-19 05:53:00,
2013-07-19 02:08:00,70.7,70.0,29.94,SSE,162,0.0,-999.0,97,-99.99,,,0.00,weatherlink.com 1.10,2013-07-19 06:08:00,
2013-07-19 02:23:00,70.6,70.0,29.95,SSE,162,0.0,-999.0,97,-99.99,,,0.00,weatherlink.com 1.10,2013-07-19 06:23:00,
2013-07-19 02:38:00,70.4,70.0,29.94,SSE,162,0.0,-999.0,97,-99.99,,,0.00,weatherlink.com 1.10,2013-07-19 06:38:00,
2013-07-19 02:53:00,70.3,69.0,29.93,SSE,162,0.0,-999.0,97,-99.99,,,0.00,weatherlink.com 1.10,2013-07-19 06:53:00,
2013-07-19 03:08:00,70.3,69.0,29.93,SSE,162,0.0,-999.0,97,-99.99,,,0.00,weatherlink.com 1.10,2013-07-19 07:08:00,
2013-07-19 03:23:00,70.2,69.0,29.93,SSE,162,0.0,-999.0,97,-99.99,,,0.00,weatherlink.com 1.10,2013-07-19 07:23:00,
2013-07-19 03:38:00,70.2,69.0,29.93,SSE,162,0.0,-999.0,97,-99.99,,,0.00,weatherlink.com 1.10,2013-07-19 07:38:00,
2013-07-19 03:54:00,70.2,69.0,29.92,SSE,162,0.0,-999.0,97,-99.99,,,0.00,weatherlink.com 1.10,2013-07-19 07:54:00,
2013-07-19 04:09:00,70.2,69.0,29.91,SSE,162,0.0,-999.0,97,-99.99,,,0.00,weatherlink.com 1.10,2013-07-19 08:09:00,
2013-07-19 04:24:00,70.3,70.0,29.91,SSE,162,0.0,-999.0,98,-99.99,,,0.00,weatherlink.com 1.10,2013-07-19 08:24:00,
2013-07-19 04:39:00,70.5,70.0,29.91,SSE,162,0.0,-999.0,98,-99.99,,,0.00,weatherlink.com 1.10,2013-07-19 08:39:00,
2013-07-19 04:54:00,71.0,70.0,29.91,SSE,162,0.0,-999.0,98,-99.99,,,0.00,weatherlink.com 1.10,2013-07-19 08:54:00,
2013-07-19 05:09:00,71.0,70.0,29.91,SSE,162,0.0,-999.0,98,-99.99,,,0.00,weatherlink.com 1.10,2013-07-19 09:09:00,
2013-07-19 05:24:00,70.1,69.0,29.91,SSE,162,0.0,-999.0,97,-99.99,,,0.00,weatherlink.com 1.10,2013-07-19 09:24:00,
2013-07-19 05:39:00,69.9,69.0,29.90,SSE,162,0.0,-999.0,97,-99.99,,,0.00,weatherlink.com 1.10,2013-07-19 09:39:00,
2013-07-19 05:54:00,70.1,70.0,29.91,SSE,162,0.0,-999.0,98,-99.99,,,0.00,weatherlink.com 1.10,2013-07-19 09:54:00,
2013-07-19 06:09:00,70.1,70.0,29.90,SSE,162,0.0,-999.0,98,-99.99,,,0.00,weatherlink.com 1.10,2013-07-19 10:09:00,
2013-07-19 06:24:00,70.8,70.0,29.90,SSE,162,0.0,-999.0,98,-99.99,,,0.00,weatherlink.com 1.10,2013-07-19 10:24:00,
2013-07-19 06:39:00,71.9,72.0,29.90,SSE,162,0.0,-999.0,99,-99.99,,,0.00,weatherlink.com 1.10,2013-07-19 10:39:00,
2013-07-19 06:54:00,72.6,72.0,29.90,SSE,162,0.0,-999.0,99,-99.99,,,0.00,weatherlink.com 1.10,2013-07-19 10:54:00,
2013-07-19 07:09:00,73.0,72.0,29.90,SSE,162,0.0,-999.0,98,-99.99,,,0.00,weatherlink.com 1.10,2013-07-19 11:09:00,
2013-07-19 07:24:00,73.4,73.0,29.89,SSE,162,0.0,-999.0,98,-99.99,,,0.00,weatherlink.com 1.10,2013-07-19 11:24:00,
2013-07-19 07:39:00,74.1,74.0,29.90,SSE,161,0.0,-999.0,98,-99.99,,,0.00,weatherlink.com 1.10,2013-07-19 11:39:00,
2013-07-19 07:54:00,75.2,74.0,29.90,ESE,110,0.0,-999.0,97,-99.99,,,0.00,weatherlink.com 1.10,2013-07-19 11:54:00,
2013-07-19 08:09:00,77.5,75.0,29.90,East,96,0.0,-999.0,91,-99.99,,,0.00,weatherlink.com 1.10,2013-07-19 12:09:00,
2013-07-19 08:24:00,80.6,77.0,29.89,SSE,154,0.0,-999.0,87,-99.99,,,0.00,weatherlink.com 1.10,2013-07-19 12:24:00,
2013-07-19 08:39:00,83.5,78.0,29.89,SSE,159,0.0,-999.0,82,-99.99,,,0.00,weatherlink.com 1.10,2013-07-19 12:39:00,
2013-07-19 08:54:00,85.2,77.0,29.89,East,98,0.0,-999.0,77,-99.99,,,0.00,weatherlink.com 1.10,2013-07-19 12:54:00,
2013-07-19 09:09:00,87.1,79.0,29.89,East,93,3.0,-999.0,76,-99.99,,,0.00,weatherlink.com 1.10,2013-07-19 13:09:00,
2013-07-19 09:24:00,87.7,78.0,29.89,ENE,78,0.0,-999.0,72,-99.99,,,0.00,weatherlink.com 1.10,2013-07-19 13:24:00,
2013-07-19 09:39:00,87.6,77.0,29.89,NE,42,0.0,-999.0,71,-99.99,,,0.00,weatherlink.com 1.10,2013-07-19 13:39:00,
2013-07-19 09:54:00,88.4,76.0,29.88,East,101,0.0,-999.0,67,-99.99,,,0.00,weatherlink.com 1.10,2013-07-19 13:54:00,
2013-07-19 10:09:00,89.4,78.0,29.89,NE,35,2.0,-999.0,68,-99.99,,,0.00,weatherlink.com 1.10,2013-07-19 14:09:00,
2013-07-19 10:24:00,90.6,76.0,29.87,ENE,76,0.0,-999.0,63,-99.99,,,0.00,weatherlink.com 1.10,2013-07-19 14:24:00,
2013-07-19 10:40:00,91.9,78.0,29.87,ENE,76,2.0,-999.0,64,-99.99,,,0.00,weatherlink.com 1.10,2013-07-19 14:40:00,
2013-07-19 10:55:00,92.3,77.0,29.87,ESE,117,1.0,-999.0,62,-99.99,,,0.00,weatherlink.com 1.10,2013-07-19 14:55:00,
2013-07-19 11:10:00,92.0,76.0,29.86,East,90,4.0,-999.0,60,-99.99,,,0.00,weatherlink.com 1.10,2013-07-19 15:10:00,
2013-07-19 11:25:00,92.1,77.0,29.86,ESE,120,0.0,-999.0,62,-99.99,,,0.00,weatherlink.com 1.10,2013-07-19 15:25:00,
2013-07-19 11:40:00,93.5,74.0,29.86,SE,145,0.0,-999.0,54,-99.99,,,0.00,weatherlink.com 1.10,2013-07-19 15:40:00,
2013-07-19 11:55:00,94.1,75.0,29.85,East,97,3.0,-999.0,54,-99.99,,,0.00,weatherlink.com 1.10,2013-07-19 15:55:00,
2013-07-19 12:10:00,93.7,75.0,29.84,ENE,69,3.0,-999.0,55,-99.99,,,0.00,weatherlink.com 1.10,2013-07-19 16:10:00,
2013-07-19 12:25:00,93.2,74.0,29.84,East,98,3.0,-999.0,54,-99.99,,,0.00,weatherlink.com 1.10,2013-07-19 16:25:00,
2013-07-19 12:40:00,93.2,75.0,29.83,NE,43,1.0,-999.0,56,-99.99,,,0.00,weatherlink.com 1.10,2013-07-19 16:40:00,
2013-07-19 12:55:00,93.9,76.0,29.83,ESE,112,1.0,-999.0,57,-99.99,,,0.00,weatherlink.com 1.10,2013-07-19 16:55:00,
2013-07-19 13:10:00,94.7,76.0,29.82,SSE,155,0.0,-999.0,54,-99.99,,,0.00,weatherlink.com 1.10,2013-07-19 17:10:00,
2013-07-19 13:25:00,93.7,73.0,29.82,ENE,64,1.0,-999.0,52,-99.99,,,0.00,weatherlink.com 1.10,2013-07-19 17:25:00,
2013-07-19 13:40:00,93.8,75.0,29.82,East,80,2.0,-999.0,54,-99.99,,,0.00,weatherlink.com 1.10,2013-07-19 17:40:00,
2013-07-19 13:55:00,93.7,75.0,29.81,East,101,1.0,-999.0,55,-99.99,,,0.00,weatherlink.com 1.10,2013-07-19 17:55:00,
2013-07-19 14:10:00,94.0,75.0,29.80,East,82,6.0,-999.0,54,-99.99,,,0.00,weatherlink.com 1.10,2013-07-19 18:10:00,
2013-07-19 14:25:00,94.3,75.0,29.80,ENE,74,1.0,-999.0,54,-99.99,,,0.00,weatherlink.com 1.10,2013-07-19 18:25:00,
2013-07-19 14:40:00,94.6,74.0,29.79,ENE,69,2.0,-999.0,52,-99.99,,,0.00,weatherlink.com 1.10,2013-07-19 18:40:00,
2013-07-19 14:55:00,94.8,75.0,29.78,ESE,102,2.0,-999.0,52,-99.99,,,0.00,weatherlink.com 1.10,2013-07-19 18:55:00,
2013-07-19 15:10:00,94.7,74.0,29.78,SSE,161,1.0,-999.0,52,-99.99,,,0.00,weatherlink.com 1.10,2013-07-19 19:10:00,
2013-07-19 15:25:00,94.0,75.0,29.76,NNW,336,1.0,-999.0,54,-99.99,,,0.00,weatherlink.com 1.10,2013-07-19 19:25:00,
2013-07-19 15:40:00,93.9,76.0,29.76,ENE,76,3.0,-999.0,56,-99.99,,,0.00,weatherlink.com 1.10,2013-07-19 19:40:00,
2013-07-19 15:55:00,93.8,75.0,29.75,South,177,2.0,-999.0,54,-99.99,,,0.00,weatherlink.com 1.10,2013-07-19 19:55:00,
2013-07-19 16:10:00,94.0,76.0,29.75,South,184,2.0,-999.0,56,-99.99,,,0.00,weatherlink.com 1.10,2013-07-19 20:10:00,
2013-07-19 16:25:00,93.9,76.0,29.74,SSW,208,0.0,-999.0,56,-99.99,,,0.00,weatherlink.com 1.10,2013-07-19 20:25:00,
2013-07-19 16:40:00,92.5,75.0,29.74,ENE,65,1.0,-999.0,56,-99.99,,,0.00,weatherlink.com 1.10,2013-07-19 20:40:00,
2013-07-19 16:55:00,91.3,74.0,29.73,East,93,1.0,-999.0,58,-99.99,,,0.00,weatherlink.com 1.10,2013-07-19 20:55:00,
2013-07-19 17:10:00,90.9,76.0,29.73,NNE,15,1.0,-999.0,61,-99.99,,,0.00,weatherlink.com 1.10,2013-07-19 21:10:00,
2013-07-19 17:25:00,91.0,76.0,29.73,SE,126,2.0,-999.0,61,-99.99,,,0.00,weatherlink.com 1.10,2013-07-19 21:25:00,
2013-07-19 17:40:00,90.3,75.0,29.72,NE,44,2.0,-999.0,61,-99.99,,,0.00,weatherlink.com 1.10,2013-07-19 21:40:00,
2013-07-19 17:55:00,89.3,75.0,29.73,East,87,0.0,-999.0,63,-99.99,,,0.00,weatherlink.com 1.10,2013-07-19 21:55:00,
2013-07-19 18:10:00,89.0,76.0,29.73,East,79,2.0,-999.0,65,-99.99,,,0.00,weatherlink.com 1.10,2013-07-19 22:10:00,
2013-07-19 18:25:00,89.0,76.0,29.73,ENE,78,0.0,-999.0,66,-99.99,,,0.00,weatherlink.com 1.10,2013-07-19 22:25:00,
2013-07-19 18:40:00,89.0,76.0,29.73,East,90,0.0,-999.0,66,-99.99,,,0.00,weatherlink.com 1.10,2013-07-19 22:40:00,
2013-07-19 18:55:00,88.8,77.0,29.73,NE,43,1.0,-999.0,68,-99.99,,,0.00,weatherlink.com 1.10,2013-07-19 22:55:00,
2013-07-19 19:10:00,88.2,77.0,29.73,NNE,29,0.0,-999.0,69,-99.99,,,0.00,weatherlink.com 1.10,2013-07-19 23:10:00,
2013-07-19 19:25:00,87.6,77.0,29.74,East,86,0.0,-999.0,71,-99.99,,,0.00,weatherlink.com 1.10,2013-07-19 23:25:00,
2013-07-19 19:40:00,86.6,77.0,29.74,East,86,0.0,-999.0,74,-99.99,,,0.00,weatherlink.com 1.10,2013-07-19 23:40:00,
2013-07-19 19:55:00,85.7,77.0,29.74,East,86,0.0,-999.0,76,-99.99,,,0.00,weatherlink.com 1.10,2013-07-19 23:55:00,
2013-07-19 20:10:00,84.9,77.0,29.75,NE,36,0.0,-999.0,78,-99.99,,,0.00,weatherlink.com 1.10,2013-07-20 00:10:00,
2013-07-19 20:25:00,84.6,77.0,29.74,ENE,61,1.0,-999.0,79,-99.99,,,0.00,weatherlink.com 1.10,2013-07-20 00:25:00,
2013-07-19 20:40:00,84.3,77.0,29.75,SSW,212,0.0,-999.0,79,-99.99,,,0.00,weatherlink.com 1.10,2013-07-20 00:40:00,
2013-07-19 20:55:00,83.6,77.0,29.75,SSW,197,0.0,-999.0,81,-99.99,,,0.00,weatherlink.com 1.10,2013-07-20 00:55:00,
2013-07-19 21:10:00,82.7,77.0,29.75,SSW,197,0.0,-999.0,82,-99.99,,,0.00,weatherlink.com 1.10,2013-07-20 01:10:00,
2013-07-19 21:26:00,82.3,77.0,29.75,SSW,197,0.0,-999.0,83,-99.99,,,0.00,weatherlink.com 1.10,2013-07-20 01:26:00,
2013-07-19 21:41:00,82.3,76.0,29.75,ENE,76,0.0,-999.0,80,-99.99,,,0.00,weatherlink.com 1.10,2013-07-20 01:41:00,
2013-07-19 21:56:00,83.2,76.0,29.75,NNW,338,1.0,-999.0,78,-99.99,,,0.00,weatherlink.com 1.10,2013-07-20 01:56:00,
2013-07-19 22:11:00,83.7,75.0,29.75,ENE,60,0.0,-999.0,76,-99.99,,,0.00,weatherlink.com 1.10,2013-07-20 02:11:00,
2013-07-19 22:26:00,83.6,75.0,29.76,NNW,338,1.0,-999.0,75,-99.99,,,0.00,weatherlink.com 1.10,2013-07-20 02:26:00,
2013-07-19 22:41:00,83.8,75.0,29.76,ENE,69,1.0,-999.0,75,-99.99,,,0.00,weatherlink.com 1.10,2013-07-20 02:41:00,
2013-07-19 22:56:00,83.6,75.0,29.76,East,88,1.0,-999.0,75,-99.99,,,0.00,weatherlink.com 1.10,2013-07-20 02:56:00,
2013-07-19 23:11:00,83.2,75.0,29.76,ENE,74,4.0,-999.0,76,-99.99,,,0.00,weatherlink.com 1.10,2013-07-20 03:11:00,
2013-07-19 23:26:00,83.3,75.0,29.75,East,84,0.0,-999.0,76,-99.99,,,0.00,weatherlink.com 1.10,2013-07-20 03:26:00,
2013-07-19 23:41:00,83.1,75.0,29.75,ENE,63,1.0,-999.0,77,-99.99,,,0.00,weatherlink.com 1.10,2013-07-20 03:41:00,
2013-07-19 23:56:00,83.0,75.0,29.75,ESE,111,0.0,-999.0,77,-99.99,,,0.00,weatherlink.com 1.10,2013-07-20 03:56:00,